Home   Weather   Mosjøen   Past weeks

Flag for Norway Past Weather in Mosjøen, Norway — Yesterday and Last 2 Weeks

Now
36 °F

Chilly.


Feels Like: 33 °F
Forecast: 35 / 40 °F
Wind: 3 mph from South

Location: Mosjoen Kjaerstad

Current Time: Dec 6, 2016 at 7:05:05 pm

Latest Report: Dec 6, 2016 at 6:00 pm


Visibility: N/A

Pressure: 30.04 "Hg

Humidity: 93%

Dew Point: 34 °F

Location of MosjøenLocation

Past Weather in Mosjøen — Graph

°F

Mosjøen Temperature Yesterday

Maximum temperature yesterday: 34 °F (at 1:00 pm)
Minimum temperature yesterday: 32 °F (at 11:00 pm)
Average temperature yesterday: 33 °F

High & Low Weather Summary for the Past Weeks

 TemperatureHumidityPressure
High44 °F (Nov 29, 10:00 am)97% (Nov 23, 5:00 am)30.31 "Hg (Nov 23, 5:00 am)
Low22 °F (Nov 27, 7:00 pm)44% (Nov 27, 2:00 am)29.18 "Hg (Nov 29, 9:00 pm)
Average33 °F89%29.77 "Hg
* Reported Nov 21 5:00 pm — Dec 6 5:00 pm, Mosjøen, Weather by CustomWeather, © 2016

Note: Actual official high and low records may vary slightly from our data, if they occured in-between our weather recording intervals... More about our weather records

Advertising

Mosjøen Weather History for the Previous 24 Hours

Scroll right to see more
 ConditionsComfort  
Time TempWeatherWind HumidityBarometerVisibility
5:00 pm
Tue, Dec 6
36 °FChilly.5 mph93%30.05 "HgN/A
4:00 pm35 °FChilly.2 mph92%30.07 "HgN/A
3:00 pm34 °FChilly.2 mph95%30.09 "HgN/A
2:00 pm32 °FChilly.2 mph96%30.11 "HgN/A
1:00 pm31 °FChilly.2 mph96%30.14 "HgN/A
12:00 pm31 °FChilly.1 mph95%30.15 "HgN/A
11:00 am30 °FChilly.2 mph95%30.18 "HgN/A
10:00 am30 °FChilly.2 mph96%30.19 "HgN/A
9:00 am29 °FChilly.2 mph96%30.18 "HgN/A
8:00 am29 °FChilly.2 mph96%30.20 "HgN/A
7:00 am30 °FChilly.2 mph96%30.19 "HgN/A
6:00 am29 °FChilly.2 mph96%30.19 "HgN/A
5:00 am30 °FChilly.1 mph96%30.20 "HgN/A
4:00 am29 °FChilly.2 mph96%30.19 "HgN/A
3:00 am29 °FChilly.1 mph96%30.18 "HgN/A
2:00 am30 °FChilly.1 mph96%30.17 "HgN/A
1:00 am31 °FChilly.1 mph96%30.15 "HgN/A
12:00 am32 °FChilly.1 mph96%30.14 "HgN/A
11:00 pm
Mon, Dec 5
32 °FChilly.1 mph94%30.12 "HgN/A
10:00 pm33 °FChilly.2 mph93%30.10 "HgN/A
9:00 pm33 °FChilly.1 mph93%30.08 "HgN/A
8:00 pm33 °FChilly.1 mph91%30.06 "HgN/A
Weather by CustomWeather, © 2016

See weather overviewHow to use our weather pages